Back to catalog

STARLINK-32047

AliveCommunicationsVLEO
NORAD 61516·PAYLOAD·🇺🇸 United States

Launched Oct 15, 2024 from Cape Canaveral Space Force Station

Loading…

Next Passes (next 24 hours)

TLE

FreshSource: CelesTrak SupGP

Epoch: Sep 15, 2026, 02:33 UTC

1 61516C 24183H   26258.10673611  .00069535  00000+0  22357-2 0  2581
2 61516  53.1603 341.0806 0001162  89.9905 309.7214 15.31672927    11

Track STARLINK-32047 in real time with AllMySat

Download on the App Store